AFR1276 LFLL-LFML

Flight info

Callsign AFR1276
Flight time 0h 38m
Altitude 18000
Route ROMAM A6 MTL
Aircraft A320/M-SDE2E3FGHIJ4RWY/HB1D1G1

Departure

Time 2026-04-28 09:34
Airport Lyon Saint-Exupéry Airport (LFLL)

Arrival

Time 2026-04-28 10:12
Airport Marseille Provence Airport (LFML)
Time Latitude Longitude Altitude Speed Heading
2026-04-28 09:14 45.71834 5.08043 797 ft 0 kts 297°
2026-04-28 09:25 45.71824 5.08071 796 ft 4 kts 296°
2026-04-28 09:25 45.71812 5.08105 796 ft 4 kts 291°
2026-04-28 09:26 45.71806 5.08141 797 ft 4 kts 262°
2026-04-28 09:26 45.71816 5.08171 797 ft 3 kts 206°
2026-04-28 09:26 45.71823 5.08176 797 ft 0 kts 202°
2026-04-28 09:28 45.71823 5.08175 797 ft 1 kts 202°
2026-04-28 09:28 45.71814 5.08171 797 ft 1 kts 200°
2026-04-28 09:29 45.71780 5.08149 797 ft 9 kts 208°
2026-04-28 09:29 45.71718 5.08127 798 ft 9 kts 163°
2026-04-28 09:29 45.71687 5.08194 800 ft 11 kts 105°
2026-04-28 09:29 45.71676 5.08288 800 ft 9 kts 92°
2026-04-28 09:30 45.71682 5.08378 800 ft 9 kts 85°
2026-04-28 09:30 45.71691 5.08453 801 ft 10 kts 65°
2026-04-28 09:30 45.71793 5.08480 802 ft 19 kts 354°
2026-04-28 09:30 45.71928 5.08463 802 ft 20 kts 356°
2026-04-28 09:31 45.72068 5.08449 803 ft 20 kts 356°
2026-04-28 09:31 45.72214 5.08431 800 ft 23 kts 355°
2026-04-28 09:31 45.72379 5.08408 798 ft 25 kts 355°
2026-04-28 09:31 45.72564 5.08387 796 ft 28 kts 355°
2026-04-28 09:32 45.72770 5.08362 791 ft 31 kts 355°
2026-04-28 09:32 45.72989 5.08335 791 ft 33 kts 355°
2026-04-28 09:32 45.73223 5.08307 785 ft 35 kts 355°
2026-04-28 09:32 45.73470 5.08278 780 ft 37 kts 355°
2026-04-28 09:33 45.73663 5.08259 778 ft 26 kts 10°
2026-04-28 09:33 45.73717 5.08464 777 ft 25 kts 105°
2026-04-28 09:33 45.73669 5.08689 777 ft 22 kts 122°
2026-04-28 09:33 45.73550 5.08732 781 ft 17 kts 175°
2026-04-28 09:34 45.73327 5.08759 786 ft 68 kts 175°
2026-04-28 09:34 45.72553 5.08855 792 ft 149 kts 175°
2026-04-28 09:34 45.71423 5.08972 1421 ft 160 kts 177°
2026-04-28 09:34 45.70296 5.09025 2405 ft 166 kts 178°
2026-04-28 09:35 45.69152 5.09049 3263 ft 162 kts 177°
2026-04-28 09:35 45.68018 5.09117 3863 ft 170 kts 177°
2026-04-28 09:35 45.66773 5.09158 4203 ft 190 kts 178°
2026-04-28 09:35 45.65370 5.09243 4559 ft 212 kts 175°
2026-04-28 09:36 45.63847 5.09483 5047 ft 229 kts 172°
2026-04-28 09:36 45.62206 5.09799 5575 ft 246 kts 172°
2026-04-28 09:36 45.60444 5.10072 6105 ft 264 kts 174°
2026-04-28 09:36 45.58558 5.10320 6715 ft 278 kts 174°
2026-04-28 09:37 45.56612 5.10576 7524 ft 284 kts 175°
2026-04-28 09:37 45.54636 5.10847 8481 ft 282 kts 175°
2026-04-28 09:37 45.52697 5.11140 9546 ft 280 kts 175°
2026-04-28 09:37 45.50746 5.11428 10345 ft 286 kts 176°
2026-04-28 09:38 45.48684 5.11712 10619 ft 310 kts 176°
2026-04-28 09:38 45.46451 5.12001 10835 ft 334 kts 176°
2026-04-28 09:38 45.44056 5.12295 10999 ft 357 kts 176°
2026-04-28 09:38 45.41535 5.12598 11443 ft 368 kts 176°
2026-04-28 09:39 45.38963 5.12909 12087 ft 373 kts 176°
2026-04-28 09:39 45.36360 5.13225 12766 ft 377 kts 176°
2026-04-28 09:39 45.33738 5.13544 13454 ft 381 kts 176°
2026-04-28 09:39 45.31083 5.13867 14095 ft 384 kts 176°
2026-04-28 09:40 45.28406 5.14192 14691 ft 388 kts 177°
2026-04-28 09:40 45.25711 5.14515 15268 ft 391 kts 177°
2026-04-28 09:40 45.22976 5.14837 15923 ft 396 kts 177°
2026-04-28 09:40 45.20219 5.15157 16558 ft 400 kts 178°
2026-04-28 09:41 45.17441 5.15481 17140 ft 403 kts 178°
2026-04-28 09:41 45.14625 5.15801 17706 ft 406 kts 180°
2026-04-28 09:41 45.11812 5.15727 17987 ft 405 kts 189°
2026-04-28 09:41 45.08986 5.14978 18046 ft 414 kts 198°
2026-04-28 09:42 45.06266 5.13551 18036 ft 419 kts 207°
2026-04-28 09:42 45.03651 5.11700 18039 ft 421 kts 208°
2026-04-28 09:42 45.01066 5.09874 18041 ft 416 kts 208°
2026-04-28 09:42 44.98458 5.08051 18034 ft 412 kts 208°
2026-04-28 09:43 44.95893 5.06265 18025 ft 411 kts 208°
2026-04-28 09:43 44.93324 5.04480 18029 ft 411 kts 208°
2026-04-28 09:43 44.90760 5.02698 18030 ft 411 kts 208°
2026-04-28 09:43 44.88199 5.00916 18014 ft 411 kts 208°
2026-04-28 09:44 44.85639 4.99130 18025 ft 411 kts 208°
2026-04-28 09:44 44.83072 4.97338 18033 ft 411 kts 208°
2026-04-28 09:44 44.80513 4.95555 18037 ft 411 kts 208°
2026-04-28 09:44 44.77945 4.93772 18035 ft 410 kts 208°
2026-04-28 09:45 44.75437 4.92039 18033 ft 392 kts 208°
2026-04-28 09:45 44.73016 4.90366 18040 ft 385 kts 208°
2026-04-28 09:45 44.70620 4.88698 18039 ft 383 kts 208°
2026-04-28 09:45 44.68239 4.87017 18042 ft 383 kts 208°
2026-04-28 09:46 44.65858 4.85324 18039 ft 383 kts 208°
2026-04-28 09:46 44.63489 4.83640 18054 ft 383 kts 209°
2026-04-28 09:46 44.61111 4.81974 17869 ft 380 kts 206°
2026-04-28 09:46 44.58623 4.80705 17286 ft 380 kts 197°
2026-04-28 09:47 44.56030 4.80029 16724 ft 379 kts 188°
2026-04-28 09:47 44.53394 4.79945 16170 ft 379 kts 179°
2026-04-28 09:47 44.50787 4.80422 15625 ft 379 kts 171°
2026-04-28 09:47 44.48251 4.81431 15074 ft 379 kts 163°
2026-04-28 09:48 44.45765 4.82616 14535 ft 376 kts 163°
2026-04-28 09:48 44.43291 4.83792 14030 ft 373 kts 163°
2026-04-28 09:48 44.40840 4.84950 13482 ft 371 kts 163°
2026-04-28 09:48 44.38408 4.86090 12960 ft 368 kts 163°
2026-04-28 09:49 44.36015 4.87211 12389 ft 365 kts 163°
2026-04-28 09:49 44.33614 4.88338 11802 ft 363 kts 163°
2026-04-28 09:49 44.31194 4.89478 11248 ft 361 kts 163°
2026-04-28 09:49 44.28812 4.90600 11081 ft 362 kts 163°
2026-04-28 09:50 44.26441 4.91717 11071 ft 355 kts 163°
2026-04-28 09:50 44.24162 4.92793 11084 ft 336 kts 163°
2026-04-28 09:50 44.22007 4.93813 11078 ft 319 kts 163°
2026-04-28 09:50 44.19961 4.94780 11081 ft 303 kts 163°
2026-04-28 09:51 44.17993 4.95705 11078 ft 297 kts 163°
2026-04-28 09:51 44.16033 4.96621 11087 ft 297 kts 163°
2026-04-28 09:51 44.14742 4.97221 11087 ft 296 kts 163°
2026-04-28 09:51 44.12779 4.98131 11088 ft 296 kts 163°
2026-04-28 09:52 44.10823 4.99040 11078 ft 296 kts 163°
2026-04-28 09:52 44.08869 4.99953 11080 ft 296 kts 163°
2026-04-28 09:52 44.06917 5.00866 11082 ft 296 kts 163°
2026-04-28 09:52 44.04962 5.01779 11036 ft 295 kts 163°
2026-04-28 09:53 44.03032 5.02685 10684 ft 294 kts 162°
2026-04-28 09:53 44.01089 5.03597 10312 ft 293 kts 163°
2026-04-28 09:53 43.99154 5.04499 9941 ft 292 kts 163°
2026-04-28 09:53 43.97231 5.05392 9509 ft 289 kts 163°
2026-04-28 09:54 43.95338 5.06273 8851 ft 286 kts 163°
2026-04-28 09:54 43.93458 5.07147 8215 ft 283 kts 162°
2026-04-28 09:54 43.91581 5.08020 7585 ft 280 kts 162°
2026-04-28 09:54 43.89763 5.08866 7219 ft 278 kts 162°
2026-04-28 09:55 43.87915 5.09723 6848 ft 275 kts 162°
2026-04-28 09:55 43.86110 5.10569 6473 ft 273 kts 161°
2026-04-28 09:55 43.84401 5.11380 6091 ft 271 kts 161°
2026-04-28 09:55 43.82628 5.12224 5739 ft 267 kts 161°
2026-04-28 09:56 43.80891 5.13052 5531 ft 258 kts 161°
2026-04-28 09:56 43.79231 5.13838 5405 ft 246 kts 161°
2026-04-28 09:56 43.77651 5.14585 5280 ft 235 kts 161°
2026-04-28 09:56 43.76139 5.15299 5159 ft 224 kts 161°
2026-04-28 09:57 43.74684 5.15987 5062 ft 220 kts 161°
2026-04-28 09:57 43.73241 5.16670 4817 ft 219 kts 161°
2026-04-28 09:57 43.71807 5.17351 4482 ft 218 kts 161°
2026-04-28 09:57 43.70373 5.18024 4166 ft 217 kts 161°
2026-04-28 09:58 43.68935 5.18652 3868 ft 216 kts 162°
2026-04-28 09:58 43.67505 5.19256 3603 ft 215 kts 162°
2026-04-28 09:58 43.66078 5.19855 3434 ft 214 kts 162°
2026-04-28 09:58 43.64653 5.20455 3408 ft 215 kts 162°
2026-04-28 09:59 43.63227 5.21060 3410 ft 214 kts 162°
2026-04-28 09:59 43.61807 5.21663 3411 ft 214 kts 162°
2026-04-28 09:59 43.60380 5.22270 3409 ft 214 kts 162°
2026-04-28 09:59 43.58958 5.22875 3402 ft 214 kts 161°
2026-04-28 10:00 43.57542 5.23476 3405 ft 212 kts 162°
2026-04-28 10:00 43.56131 5.24076 3405 ft 213 kts 162°
2026-04-28 10:00 43.54709 5.24680 3407 ft 214 kts 162°
2026-04-28 10:00 43.53284 5.25283 3408 ft 215 kts 162°
2026-04-28 10:01 43.51850 5.25888 3417 ft 214 kts 162°
2026-04-28 10:01 43.50471 5.26471 3401 ft 201 kts 162°
2026-04-28 10:01 43.49160 5.27026 3238 ft 194 kts 162°
2026-04-28 10:01 43.47888 5.27566 3022 ft 190 kts 162°
2026-04-28 10:02 43.46623 5.28105 2776 ft 189 kts 161°
2026-04-28 10:02 43.45367 5.28640 2631 ft 189 kts 162°
2026-04-28 10:02 43.44093 5.29179 2608 ft 190 kts 162°
2026-04-28 10:02 43.42840 5.29707 2611 ft 190 kts 162°
2026-04-28 10:03 43.41575 5.30241 2613 ft 190 kts 161°
2026-04-28 10:03 43.40292 5.30784 2609 ft 191 kts 161°
2026-04-28 10:03 43.39020 5.31322 2606 ft 192 kts 161°
2026-04-28 10:03 43.37753 5.31857 2646 ft 188 kts 162°
2026-04-28 10:04 43.36556 5.32362 2619 ft 172 kts 161°
2026-04-28 10:04 43.35441 5.32833 2501 ft 164 kts 161°
2026-04-28 10:04 43.34376 5.33283 2352 ft 155 kts 162°
2026-04-28 10:04 43.33371 5.33708 2212 ft 149 kts 162°
2026-04-28 10:05 43.32393 5.34123 2088 ft 146 kts 162°
2026-04-28 10:05 43.31437 5.34532 2022 ft 143 kts 162°
2026-04-28 10:05 43.30484 5.34939 2017 ft 145 kts 161°
2026-04-28 10:05 43.29523 5.35348 2012 ft 144 kts 160°
2026-04-28 10:06 43.28569 5.35752 2004 ft 143 kts 160°
2026-04-28 10:06 43.27614 5.36143 2001 ft 144 kts 165°
2026-04-28 10:06 43.26612 5.36100 2003 ft 148 kts 193°
2026-04-28 10:06 43.25707 5.35410 2007 ft 153 kts 221°
2026-04-28 10:07 43.25182 5.34140 2007 ft 158 kts 256°
2026-04-28 10:07 43.25261 5.32639 2017 ft 161 kts 291°
2026-04-28 10:07 43.25951 5.31446 2006 ft 163 kts 328°
2026-04-28 10:07 43.27007 5.30982 2017 ft 159 kts 358°
2026-04-28 10:08 43.28115 5.30851 2009 ft 159 kts 357°
2026-04-28 10:08 43.29221 5.30714 2009 ft 161 kts 358°
2026-04-28 10:08 43.30338 5.30574 2005 ft 161 kts 358°
2026-04-28 10:08 43.31446 5.30428 2012 ft 159 kts 356°
2026-04-28 10:09 43.32549 5.30283 2009 ft 161 kts 356°
2026-04-28 10:09 43.33657 5.30143 2028 ft 160 kts 357°
2026-04-28 10:09 43.34750 5.30003 2014 ft 155 kts 356°
2026-04-28 10:09 43.35820 5.29863 2009 ft 154 kts 355°
2026-04-28 10:10 43.36901 5.29719 2015 ft 153 kts 354°
2026-04-28 10:10 43.37903 5.29322 2003 ft 154 kts 335°
2026-04-28 10:10 43.38766 5.28450 1840 ft 156 kts 312°
2026-04-28 10:10 43.39533 5.27378 1482 ft 154 kts 314°
2026-04-28 10:11 43.40282 5.26347 1212 ft 152 kts 311°
2026-04-28 10:11 43.41015 5.25301 908 ft 149 kts 311°
2026-04-28 10:11 43.41729 5.24283 608 ft 147 kts 311°
2026-04-28 10:11 43.42434 5.23282 320 ft 146 kts 310°
2026-04-28 10:12 43.43136 5.22275 115 ft 146 kts 311°
2026-04-28 10:12 43.43820 5.21296 41 ft 130 kts 311°
2026-04-28 10:12 43.44229 5.20695 35 ft 51 kts 314°
2026-04-28 10:12 43.44433 5.20408 36 ft 32 kts 314°
2026-04-28 10:13 43.44587 5.20228 36 ft 24 kts 352°
2026-04-28 10:13 43.44671 5.20326 37 ft 15 kts 88°
2026-04-28 10:13 43.44615 5.20434 37 ft 15 kts 135°
2026-04-28 10:13 43.44537 5.20542 37 ft 17 kts 135°
2026-04-28 10:14 43.44449 5.20667 37 ft 19 kts 133°
2026-04-28 10:14 43.44351 5.20808 37 ft 21 kts 133°
2026-04-28 10:14 43.44266 5.20984 35 ft 23 kts 119°
2026-04-28 10:14 43.44158 5.21153 37 ft 24 kts 134°
2026-04-28 10:15 43.44037 5.21325 37 ft 26 kts 134°
2026-04-28 10:15 43.43920 5.21512 37 ft 23 kts 102°
2026-04-28 10:15 43.43988 5.21634 37 ft 14 kts 48°
2026-04-28 10:15 43.44053 5.21726 37 ft 13 kts 44°
2026-04-28 10:16 43.44110 5.21810 37 ft 11 kts 63°
2026-04-28 10:16 43.44091 5.21898 36 ft 10 kts 131°
2026-04-28 10:16 43.44046 5.21965 37 ft 10 kts 130°
2026-04-28 10:16 43.44001 5.22032 37 ft 9 kts 115°
2026-04-28 10:17 43.44018 5.22101 37 ft 7 kts 62°
2026-04-28 10:17 43.44025 5.22117 36 ft 0 kts 61°